Oakdale, LA

3:10 PM CDT on April 19, 2018 (GMT -0500)
Oakdale

Weather History for KACP - October, 2013

Change the Weather History Date:

Monday, October 7, 2013

  Actual Average (KPOE) Record (KPOE)
Temperature  
Mean Temperature 62 °F -  
Max Temperature 76 °F 77 °F 89 °F (2007)
Min Temperature 48 °F 59 °F 46 °F (2001)
Degree Days  
Heating Degree Days 3    
Growing Degree Days 12 (Base 50)    
Moisture  
Dew Point 50 °F    
Average Humidity 75    
Maximum Humidity 96    
Minimum Humidity 40    
Precipitation  
Precipitation 0.00 in - - ()
Sea Level Pressure  
Sea Level Pressure 30.05 in    
Wind  
Wind Speed 2 mph (North)    
Max Wind Speed 12 mph    
Max Gust Speed 18 mph    
Visibility 10 miles    
Events      
Averages and records for this station are not official NWS values.
T = Trace of Precipitation, MM = Missing Value Source: NWS Daily Summary

Daily Weather History Graph

Daily Weather History Graph

Search for Another Location

Airport or City:

Astronomy

Oct. 07, 2013 Rise Set
Actual Time 7:08 AM CDT 6:48 PM CDT
Civil Twilight 6:44 AM CDT 7:12 PM CDT
Nautical Twilight 6:16 AM CDT 7:40 PM CDT
Astronomical Twilight 5:48 AM CDT 8:08 PM CDT
Moon 9:46 AM CDT (10/7) 8:47 PM CDT (10/7)
Length of Visible Light 12h 28m
Length of Day
11h 40m
Waxing Crescent, 9% of the Moon is Illuminated
Oct 7
Waxing Crescent
Oct 11
First Quarter
Oct 18
Full
Oct 26
Last Quarter
Nov 3
New

Hourly Weather History & Observations

Time (CDT) Temp. Dew Point Humidity Pressure Visibility Wind Dir Wind Speed Gust Speed Precip Events Conditions
12:15 AM 51.6 °F 50.4 °F 95% 30.02 in 10.0 mi Calm Calm - N/A   Clear
12:35 AM 51.3 °F 50.0 °F 95% 30.02 in 10.0 mi Calm Calm - N/A   Clear
12:55 AM 50.9 °F 49.5 °F 95% 30.02 in 10.0 mi Calm Calm - N/A   Clear
1:15 AM 50.7 °F 49.5 °F 95% 30.02 in 10.0 mi Calm Calm - N/A   Clear
1:35 AM 50.5 °F 49.5 °F 96% 30.02 in 10.0 mi Calm Calm - N/A   Clear
1:55 AM 50.2 °F 49.1 °F 96% 30.02 in 10.0 mi Calm Calm - N/A   Clear
2:15 AM 50.2 °F 49.1 °F 96% 30.03 in 10.0 mi Calm Calm - N/A   Clear
2:35 AM 49.8 °F 48.6 °F 95% 30.03 in 10.0 mi Calm Calm - N/A   Clear
2:55 AM 50.4 °F 49.1 °F 95% 30.03 in 10.0 mi Calm Calm - N/A   Clear
3:15 AM 51.1 °F 48.7 °F 92% 30.03 in 10.0 mi Calm Calm - N/A   Clear
3:35 AM 50.9 °F 48.2 °F 90% 30.02 in 10.0 mi Calm Calm - N/A   Clear
3:55 AM 50.9 °F 48.4 °F 91% 30.02 in 10.0 mi Calm Calm - N/A   Clear
4:15 AM 50.9 °F 48.6 °F 92% 30.03 in 10.0 mi Calm Calm - N/A   Clear
4:35 AM 49.8 °F 47.8 °F 93% 30.03 in 10.0 mi NNW 3.5 mph - N/A   Clear
4:55 AM 49.8 °F 48.2 °F 94% 30.03 in 10.0 mi Calm Calm - N/A   Clear
5:15 AM 50.2 °F 48.2 °F 93% 30.03 in 10.0 mi Calm Calm - N/A   Clear
5:35 AM 49.5 °F 48.0 °F 95% 30.04 in 10.0 mi Calm Calm - N/A   Clear
5:55 AM 49.3 °F 47.8 °F 95% 30.04 in 10.0 mi Calm Calm - N/A   Clear
6:15 AM 48.9 °F 47.5 °F 95% 30.05 in 10.0 mi Calm Calm - N/A   Clear
6:35 AM 48.9 °F 47.5 °F 95% 30.05 in 10.0 mi Calm Calm - N/A   Clear
6:55 AM 48.2 °F 46.8 °F 95% 30.06 in 10.0 mi Calm Calm - N/A   Clear
7:15 AM 49.3 °F 47.8 °F 95% 30.06 in 10.0 mi Calm Calm - N/A   Clear
7:35 AM 50.2 °F 48.4 °F 94% 30.06 in 10.0 mi Calm Calm - N/A   Clear
7:55 AM 52.2 °F 49.6 °F 91% 30.07 in 10.0 mi Calm Calm - N/A   Clear
8:15 AM 54.1 °F 50.9 °F 89% 30.08 in 10.0 mi NNW 3.5 mph - N/A   Clear
8:35 AM 56.7 °F 52.0 °F 84% 30.09 in 10.0 mi Calm Calm - N/A   Clear
8:55 AM 59.0 °F 52.2 °F 78% 30.09 in 10.0 mi NNW 3.5 mph - N/A   Clear
9:15 AM 60.8 °F 52.3 °F 74% 30.10 in 10.0 mi North 4.6 mph - N/A   Clear
9:35 AM 62.8 °F 51.4 °F 66% 30.10 in 10.0 mi NNE 3.5 mph - N/A   Clear
9:55 AM 64.4 °F 50.0 °F 59% 30.10 in 10.0 mi NNE 4.6 mph - N/A   Clear
10:15 AM 66.4 °F 49.8 °F 55% 30.10 in 10.0 mi North 6.9 mph - N/A   Clear
10:35 AM 67.3 °F 49.1 °F 52% 30.10 in 10.0 mi NNE 4.6 mph - N/A   Clear
10:55 AM 68.5 °F 48.6 °F 49% 30.10 in 10.0 mi North 6.9 mph - N/A   Clear
11:15 AM 69.4 °F 48.2 °F 47% 30.10 in 10.0 mi North 6.9 mph - N/A   Clear
11:35 AM 71.1 °F 48.9 °F 45% 30.10 in 10.0 mi NNE 8.1 mph - N/A   Clear
11:55 AM 71.2 °F 48.4 °F 44% 30.10 in 10.0 mi NE 5.8 mph 16.1 mph N/A   Clear
12:15 PM 72.3 °F 48.9 °F 43% 30.09 in 10.0 mi NE 8.1 mph - N/A   Clear
12:35 PM 73.2 °F 49.8 °F 44% 30.09 in 10.0 mi North 5.8 mph - N/A   Clear
12:55 PM 73.2 °F 48.9 °F 42% 30.07 in 10.0 mi North 5.8 mph - N/A   Clear
1:15 PM 74.1 °F 48.7 °F 41% 30.07 in 10.0 mi North 8.1 mph - N/A   Clear
1:35 PM 74.5 °F 49.1 °F 41% 30.06 in 10.0 mi NW 8.1 mph 17.3 mph N/A   Clear
1:55 PM 74.7 °F 49.3 °F 41% 30.05 in 10.0 mi NNW 10.4 mph - N/A   Clear
2:15 PM 75.0 °F 50.4 °F 42% 30.04 in 10.0 mi NNW 11.5 mph - N/A   Clear
2:35 PM 75.6 °F 51.1 °F 42% 30.03 in 10.0 mi NNW 9.2 mph - N/A   Clear
2:55 PM 75.0 °F 50.0 °F 41% 30.03 in 10.0 mi NNW 10.4 mph - N/A   Clear
3:15 PM 75.9 °F 51.1 °F 42% 30.03 in 10.0 mi NNW 6.9 mph - N/A   Clear
3:35 PM 76.1 °F 51.4 °F 42% 30.02 in 10.0 mi NNW 6.9 mph - N/A   Clear
3:55 PM 75.7 °F 51.8 °F 43% 30.02 in 10.0 mi NW 11.5 mph 18.4 mph N/A   Clear
4:15 PM 76.3 °F 50.9 °F 41% 30.01 in 10.0 mi NNW 10.4 mph - N/A   Clear
4:35 PM 76.1 °F 50.0 °F 40% 30.01 in 10.0 mi NNW 8.1 mph - N/A   Clear
4:55 PM 75.4 °F 49.8 °F 41% 30.01 in 10.0 mi NW 9.2 mph - N/A   Clear
5:15 PM 75.2 °F 50.5 °F 42% 30.01 in 10.0 mi NNW 8.1 mph - N/A   Clear
5:35 PM 74.3 °F 50.0 °F 42% 30.01 in 10.0 mi North 8.1 mph - N/A   Clear
5:55 PM 73.2 °F 49.6 °F 43% 30.01 in 10.0 mi NNW 8.1 mph - N/A   Clear
6:15 PM 70.9 °F 51.1 °F 49% 30.01 in 10.0 mi North 4.6 mph - N/A   Clear
6:35 PM 66.9 °F 52.9 °F 61% 30.02 in 10.0 mi Calm Calm - N/A   Clear
6:55 PM 61.3 °F 56.8 °F 85% 30.02 in 10.0 mi Calm Calm - N/A   Clear
7:15 PM 59.2 °F 56.8 °F 92% 30.03 in 10.0 mi Calm Calm - N/A   Clear
7:35 PM 58.1 °F 56.3 °F 94% 30.03 in 10.0 mi Calm Calm - N/A   Clear
7:55 PM 57.2 °F 55.4 °F 94% 30.04 in 10.0 mi Calm Calm - N/A   Clear
8:15 PM 56.3 °F 54.5 °F 94% 30.05 in 10.0 mi Calm Calm - N/A   Clear
8:35 PM 55.4 °F 53.6 °F 94% 30.05 in 10.0 mi Calm Calm - N/A   Clear
8:55 PM 55.0 °F 53.6 °F 95% 30.06 in 10.0 mi Calm Calm - N/A   Clear
9:15 PM 54.7 °F 53.2 °F 95% 30.06 in 10.0 mi Calm Calm - N/A   Clear
9:35 PM 53.6 °F 52.2 °F 95% 30.07 in 10.0 mi Calm Calm - N/A   Clear
9:55 PM 53.1 °F 51.8 °F 95% 30.07 in 10.0 mi Calm Calm - N/A   Clear
10:15 PM 52.7 °F 51.4 °F 95% 30.08 in 10.0 mi Calm Calm - N/A   Clear
10:35 PM 52.5 °F 51.3 °F 95% 30.08 in 10.0 mi Calm Calm - N/A   Clear
10:55 PM 52.0 °F 50.9 °F 96% 30.08 in 10.0 mi Calm Calm - N/A   Clear
11:15 PM 51.8 °F 50.5 °F 95% 30.08 in 10.0 mi Calm Calm - N/A   Clear
11:35 PM 51.3 °F 50.0 °F 95% 30.08 in 10.0 mi Calm Calm - N/A   Clear
11:55 PM 50.9 °F 49.8 °F 96% 30.07 in 10.0 mi Calm Calm - N/A   Clear